Regional Weather Roundup
Issued by NWS Newport/Morehead, NC

Current Version | Previous Version | Text Only | Print | Product List | Glossary Off
Versions: 1 2 3 4 5 6 7 8 9 10 11 12 13 14 15 16 17 18 19 20 21 22 23 24 25 26 27 28 29 30 31 32 33 34 35 36 37 38 39 40 41 42 43 44 45 46 47 48 49 50
000 ASUS42 KMHX 230524 RWRMHX WEATHER ROUNDUP FOR EASTERN NORTH CAROLINA NATIONAL WEATHER SERVICE NEWPORT/MOREHEAD CITY NC 100 AM EDT SUN APR 23 2017 NOTE: "FAIR" INDICATES FEW OR NO CLOUDS BELOW 12,000 FEET WITH NO SIGNIFICANT WEATHER AND/OR OBSTRUCTIONS TO VISIBILITY NCZ015>017-031-032-045>047-102-103-230600- NORTH COAST CITY SKY/WX TMP DP RH WIND PRES REMARKS EDENTON CLOUDY 57 54 89 CALM 29.96F ELIZABETH CITY CLOUDY 56 55 97 NE14 29.96F KITTY HAWK CLOUDY 56 56 100 NE8 29.93F MANTEO CLOUDY 56 55 95 NE15G24 29.93F $$ NCZ045>047-081-094-103-104-230600- CENTRAL COAST CITY SKY/WX TMP DP RH WIND PRES REMARKS FRISCO MOCLDY 64 60 87 VRB6 29.92R $$ NCZ095-097-098-100-101-230600- SOUTHERN COAST CITY SKY/WX TMP DP RH WIND PRES REMARKS BEAUFORT MOCLDY 68 65 90 NE8G18 29.92S CEDAR ISLAND NOT AVBL JACKSONVILLE PTCLDY 67 64 90 NE7 29.92R PINEY ISLAND NOT AVBL WILMINGTON CLEAR 71 67 87 SW13G22 29.89F $$ NCZ011>013-027>030-043-044-078>080-089-090>093-098-230600- COASTAL PLAIN CITY SKY/WX TMP DP RH WIND PRES REMARKS AHOSKIE LGT RAIN 55 54 94 N9 30.01R CLINTON CLOUDY 63 62 98 E3 29.93F ELIZABETHTOWN PTCLDY 68 60 75 CALM 29.92R GOLDSBORO CLOUDY 61 61 100 NE7 29.93S GREENVILLE LGT RAIN 59 55 88 NE9 29.98S HAVELOCK MOCLDY 65 60 84 NE10 29.94S KENANSVILLE CLOUDY 63 59 88 E5 29.94R KINSTON CLOUDY 60 55 83 NE7 29.96R NEW BERN CLOUDY 61 59 93 NE10 29.95R RICHLANDS CLOUDY 64 62 93 E8 29.93S ROCKY MOUNT CLOUDY 58 57 97 NE8 29.97F FOG WASHINGTON CLOUDY 56 54 94 NE7 29.95F WHITEVILLE PTCLDY 67 63 84 S5 29.89R $$ AMZ130-135-150-152-154-156-158-170-250-252-270-ANZ085-086-088-633-658-670-230600- MARINE OBSERVATIONS STATION/POSITION TIME TEMP WIND PRES WAVE SWELL AIR SEA DIR/SP/G HT/PER HT/PER (UTC) (F) (DEG/KT/KT) (MB) (FT/S) (FT/S) CHESAPEAKE LIGHT NOT AVBL 64 E VA BEACH 0450 56 56 20/ 14/ 17 1014.0 6/ 6 3/12 DUCK 0500 56 62 20/ 20/ 24 1013.3 2 E DUCK 0500 60 N/A 5/ 6 2/13 OREGON INLET 0500 56 74 360/ 10/ 13 1013.6 13E OREGON INLT 0448 59 N/A 6/ 6 7/ 6 HATTERAS CG 0500 63 71 350/ 16/ 17 1013.0 DIAMOND BUOY 0450 69 75 350/ 4/ 10 1013.1 6/ 6 5/ 6 CAPE LOOKOUT 0500 70 290/ 9/ 10 1012.7 BEAUFORT LAB 0500 69 68 30/ 8/ 14 1012.2 30 SE NEW RVR IN 0508 71 230/ 14/ 17 1012.6 30 SE NEW RVR IN 0443 71 N/A 5/ 6 2/13 27 SE WRIGHTSVLE 0508 72 70 210/ 14/ 19 1011.8 5 SE WRIGHTSVLE 0508 69 68 200/ 10/ 14 1012.2 225 S CAPE HAT 0450 72 76 180/ 16/ 19 1015.2 4/12 3/12 41 SE CHARLESTON 0500 74 73 200/ 14/ 16 1012.9 $$

USA.gov is the U.S. government's official web portal to all federal, state and local government web resources and services.